807  
ASUS41 KPHI 242212  
RWRPHI  
 
REGIONAL WEATHER ROUNDUP  
NATIONAL WEATHER SERVICE MOUNT HOLLY NJ  
600 PM EDT SAT SEP 24 2016  
 
NOTE: "FAIR" INDICATES FEW OR NO CLOUDS BELOW 12,000 FEET WITH NO  
SIGNIFICANT WEATHER AND/OR S TO VISIBILITY
.  
 
* = STATION DOES NOT REPORT PRECIPITATION (E.G. RAIN, SNOW, ETC.)  
OR FOG.
 
 
NJZ015>026-242300-  
SOUTHERN NEW JERSEY  
 
CITY SKY/WX TMP DP RH WIND PRES REMARKS
 
POMONA PTCLDY 66 55 67 N3 30.10R  
WILDWOOD* N/A 64 59 83 N6 30.11  
MILLVILLE MOCLDY 65 59 81 NE3 30.10S  
WRIGHTSTOWN CLEAR 69 52 54 NW2 30.06R  
MOUNT HOLLY PTCLDY 69 52 54 VRB3 30.08S  
TRENTON CLEAR 71 46 40 N7 30.08R  
 

 
NJZ001>014-242300-  
NORTHERN NEW JERSEY  
 
CITY SKY/WX TMP DP RH WIND PRES REMARKS
 
SUSSEX CLEAR 68 42 38 VRB5 30.10R  
ANDOVER* N/A 66 43 43 VRB5 30.10R  
MORRISTOWN PTCLDY 70 46 43 E5 30.08R  
NEWARK PTCLDY 70 43 37 VRB6G21 30.08R  
TETERBORO CLEAR 70 40 33 NE6 30.07R  
CALDWELL CLEAR 71 45 39 NE3 30.09R  
SOMERVILLE CLEAR 72 41 32 NW8 30.07R  
ALLAIRE* CLEAR 67 52 58 CALM 30.10R  
TOMS RIVER* PTCLDY 66 56 70 SE5 30.10R  
 

 
PAZ043-044-047-054-055-060>062-066>071-242300-  
EASTERN PENNSYLVANIA  
 
CITY SKY/WX TMP DP RH WIND PRES REMARKS
 
PHILADELPHIA PTCLDY 71 53 52 CALM 30.09R  
NORTH PHILA CLEAR 72 51 47 NE6 30.09S  
BLUE BELL* CLEAR 70 52 52 E3 30.08R  
DOYLESTOWN CLEAR 73 48 41 VRB3 30.08R  
QUAKERTOWN* CLEAR 72 46 40 N8 30.10R  
PERKASIE* FAIR 70 46 43 NW3 30.10R  
POTTSTOWN CLEAR 71 44 37 N8 30.10R  
LANCASTER SUNNY 72 45 37 N10 30.10R  
COATESVILLE CLEAR 68 52 56 N5 30.11R  
READING CLEAR 71 44 37 N7 30.09R  
ALLENTOWN CLEAR 71 43 36 N9 30.10R  
MOUNT POCONO N/A 60 40 47 MISG 30.14R  
HAZLETON CLEAR 63 43 48 N7 30.16S  
LEHIGHTON FAIR 68 43 40 N5 30.12R  
WILKES BARRE CLEAR 66 42 41 N12 30.13R  
 

 
DEZALL-MDZ008-012-015-019-020-242300-  
DELAWARE AND EASTERN MARYLAND  
 
CITY SKY/WX TMP DP RH WIND PRES REMARKS
 
WILMINGTON CLEAR 68 54 60 NW5 30.10R  
DOVER CLOUDY 66 65 98 NE5 30.09R  
GEORGETOWN CLOUDY 65 62 90 NE9 30.10R  
EASTON PTSUNNY 68 59 73 NE8 30.13R  
PATUXENT CLOUDY 70 63 78 E7 30.08R  
OCEAN CITY LGT RAIN 67 63 87 NE10 30.08R  
WALLOPS ISLAND CLOUDY 68 65 90 NE13 30.08S  
CAMBRIDGE CLOUDY 64 61 88 E5 30.09R  
SALISBURY CLOUDY 66 62 87 NE10 30.09R  
 

 
PAZ001-021-NYZ056-072-MDZ011-DCZ001-242300-  
OTHER NEARBY LOCATIONS  
 
CITY SKY/WX TMP DP RH WIND PRES REMARKS
 
HARRISBURG MOSUNNY 73 42 32 N10 30.09R  
STATE COLLEGE SUNNY 70 45 40 N6 30.13S  
WILLIAMSPORT SUNNY 70 44 39 N10 30.12R  
BINGHAMTON CLEAR 58 37 45 N14 30.17R  
NEW YORK CITY CLEAR 68 42 38 VRB7 30.11R  
BALTIMORE MOSUNNY 72 58 61 NE3 30.09S  
WASHINGTON DC PTSUNNY 73 62 68 N8 30.09R  
 

 
 
 
CLICK HERE TO GO TO PREVIOUS BULLETINS.

The Nexlab PA Page
The Nexlab NJ Page
The Nexlab DE Page
The Nexlab MD Page Main Text Page